www.pogodaiklimat.ru

Погода и климат >> Архив погоды >> Австрия >> Зальцбург университет


ПОГОДА в Зальцбурге университет

  • Прогноз погоды в Зальцбурге университет
  • Монитор погоды в Зальцбурге университет

АРХИВ ПОГОДЫ в Зальцбурге университет

Время (UTC), дата Ветер
(напр.,м/с)
 
Видим.   Явления Облачность Т
(С)
Тd
(С)
f
(%)
Тe
(С)
Тes
(С)
Комфортность P
(гПа)
Po
(гПа)
Тmin
(С)
Tmax
(С)
R
(мм)
R24
(мм)
S
(см)
16 18.08 С 1 н/о н/о +31.6 +11.4 29 +32 +32 жарко 1008.0 962.3
17 18.08 СЗ 1 н/о н/о +31.2 +10.5 28 +31 +31 жарко 1008.1 962.3
18 18.08 штиль 0 н/о н/о +26.2 +15.6 52 +29 +29 жарко 1008.6 962.1 +20.4 +32.5
19 18.08 Ю 1 н/о н/о +22.5 +16.7 70 +27 +27 душно 1009.1 962.1
20 18.08 ЮЗ 1 н/о н/о +21.7 +15.4 67 +25 +25 комфорт 1009.6 962.4
21 18.08 штиль 0 н/о н/о +20.2 +14.9 72 +22 +22 комфорт 1009.7 962.2
22 18.08 З 1 н/о н/о +19.7 +14.8 73 +23 +23 комфорт 1009.9 962.3
23 18.08 штиль 0 н/о н/о +19.6 +14.0 70 +21 +21 комфорт 1010.1 962.5
00 19.08 С 1 н/о н/о +19.6 +14.3 71 +22 +22 комфорт 1012.0 964.3
01 19.08 СЗ 1 н/о н/о +20.6 +14.6 68 +24 +24 комфорт 1013.5 965.9
02 19.08 СЗ 1 н/о н/о +22.7 +14.4 59 +26 +26 жарко 1014.9 967.6
03 19.08 З 2 н/о осадки н/о +21.2 +14.5 66 +24 +24 комфорт 1017.5 969.8 0.1
04 19.08 С 1 н/о в посл. час осадки н/о +18.3 +15.5 84 +20 +20 1018.2 970.0 0.2
05 19.08 штиль 0 н/о в посл. час осадки н/о +17.7 +15.5 87 +18 +18 1017.9 969.7 0.2
06 19.08 Ю 1 н/о {ливн. осадки} н/о +18.0 +15.6 86 +19 +19 1017.9 969.7 +17.6 +26.6 0.5
07 19.08 ЮВ 1 н/о н/о +19.7 +16.5 82 +23 +23 комфорт 1017.5 969.6
08 19.08 Ю 2 н/о н/о +20.6 +15.4 72 +24 +24 комфорт 1016.8 969.1
09 19.08 ЮВ 1 н/о н/о +22.2 +15.6 66 +26 +26 душно 1017.3 969.8
10 19.08 ЮЗ 1 н/о н/о +22.4 +15.7 66 +26 +26 жарко 1017.6 970.1
11 19.08 Ю 1 н/о н/о +21.9 +16.1 70 +26 +26 душно 1017.1 969.6
12 19.08 штиль 0 н/о н/о +21.9 +16.6 72 +26 +26 душно 1017.1 969.6 0.0
13 19.08 Ю 1 н/о осадки н/о +21.6 +15.8 70 +25 +25 комфорт 1017.8 970.2 0.0
14 19.08 ЮВ 2 н/о в посл. час осадки н/о +21.7 +16.7 73 +26 +26 душно 1017.4 969.8 0.1
15 19.08 ЮВ 2 н/о {осадки} н/о +21.0 +17.0 78 +26 +26 душно 1017.4 969.7 0.1
16 19.08 Ю 3 н/о н/о +22.4 +16.0 67 +27 +27 душно 1016.7 969.3
17 19.08 Ю 2 н/о н/о +22.7 +15.7 65 +27 +27 душно 1016.7 969.3
18 19.08 штиль 0 н/о {осадки} н/о +21.0 +16.0 73 +24 +24 комфорт 1017.2 969.5 +18.0 +23.8 0.1
19 19.08 штиль 0 н/о н/о +18.8 +16.3 85 +20 +20 1018.4 970.3
20 19.08 штиль 0 н/о н/о +17.6 +15.5 87 +18 +18 1019.0 970.7
21 19.08 штиль 0 н/о н/о +16.9 +15.3 90 +17 +17 1019.3 970.9
22 19.08 штиль 0 н/о н/о +17.1 +15.3 89 +17 +17 1019.7 971.3
23 19.08 штиль 0 н/о н/о +17.2 +15.1 87 +17 +17 1019.6 971.2
00 20.08 З 1 н/о н/о +17.3 +14.9 86 +18 +18 1019.5 971.1
01 20.08 штиль 0 н/о н/о +16.6 +14.7 89 +16 +16 1019.4 970.9
02 20.08 ЮЗ 1 н/о н/о +16.4 +14.7 90 +17 +17 1019.9 971.3
03 20.08 штиль 0 н/о н/о +16.7 +14.5 87 +17 +17 1020.9 972.3
04 20.08 Ю 1 н/о н/о +16.2 +14.9 92 +17 +17 1020.7 972.1
05 20.08 Ю 2 н/о н/о +16.8 +14.7 87 +17 +17 1020.0 971.5
06 20.08 Ю 1 н/о н/о +17.8 +14.6 82 +19 +19 1019.3 971.0 +16.2 +21.2
07 20.08 С 1 н/о н/о +20.3 +15.2 73 +24 +24 комфорт 1018.8 970.9
08 20.08 Ю 1 н/о н/о +21.6 +15.1 67 +25 +25 комфорт 1018.6 970.9
09 20.08 ЮЗ 1 н/о н/о +23.3 +16.2 64 +28 +28 душно 1018.3 970.9
10 20.08 СЗ 1 н/о н/о +22.6 +17.0 71 +27 +27 душно 1018.1 970.7
11 20.08 СЗ 2 н/о н/о +20.7 +16.9 79 +25 +25 комфорт 1019.0 971.2
12 20.08 С 2 н/о в посл. час осадки н/о +21.0 +16.6 76 +25 +25 комфорт 1019.0 971.3 0.0
13 20.08 С 1 н/о в посл. час осадки н/о +21.6 +17.3 77 +26 +26 душно 1018.1 970.5 0.1
14 20.08 СЗ 1 н/о н/о +21.1 +17.5 80 +25 +25 комфорт 1018.2 970.5
15 20.08 С 1 н/о {осадки} н/о +20.7 +17.6 82 +26 +26 душно 1017.9 970.2 0.1
16 20.08 З 1 н/о н/о +20.5 +17.3 82 +25 +25 комфорт 1018.2 970.4 0.0
17 20.08 штиль 0 н/о осадки н/о +19.9 +17.8 88 +23 +23 комфорт 1018.9 971.0 0.0
18 20.08 штиль 0 н/о осадки {ливн. осадки} н/о +19.1 +17.7 92 +21 +21 комфорт 1019.5 971.5 +17.8 +24.4 0.1
19 20.08 З 2 н/о осадки н/о +17.7 +16.6 93 +18 +18 1021.6 973.2 4
20 20.08 СЗ 2 н/о осадки н/о +15.9 +14.0 88 +16 +16 1024.2 975.3 1
21 20.08 СЗ 2 н/о {осадки} н/о +15.5 +13.1 86 +15 +15 1025.0 976.0 5
22 20.08 СЗ 1 н/о ливневой дождь н/о +15.3 +12.9 86 +16 +16 1025.9 976.8 0.0
23 20.08 З 1 н/о осадки н/о +14.3 +13.2 93 +15 +15 1027.1 977.8 5
00 21.08 ЮЗ 1 н/о осадки {ливн. осадки} н/о +14.0 +13.0 94 +14 +14 1027.6 978.2 10
01 21.08 ЮВ 1 н/о осадки н/о +13.8 +13.0 95 +14 +14 1027.8 978.4 1
02 21.08 ЮВ 1 н/о осадки н/о +13.9 +13.2 96 +14 +14 1028.0 978.6 0.9
03 21.08 штиль 0 н/о осадки н/о +13.8 +13.2 96 +13 +13 1028.1 978.7 4
04 21.08 З 1 н/о осадки н/о +13.8 +12.8 94 +14 +14 1028.5 979.1 3
05 21.08 З 1 н/о осадки н/о +13.7 +12.8 94 +14 +14 1028.7 979.2 2
06 21.08 СЗ 1 н/о осадки н/о +13.6 +12.5 93 +14 +14 1029.1 979.6 +13.5 +19.3 21
07 21.08 ЮЗ 1 н/о осадки н/о +13.7 +12.8 94 +14 +14 1029.3 979.8 2
08 21.08 З 1 н/о в посл. час осадки н/о +13.9 +12.8 93 +14 +14 1029.0 979.6 0.9
09 21.08 ЮЗ 1 н/о {осадки} н/о +14.4 +13.2 92 +15 +15 1028.5 979.2 2
10 21.08 З 1 н/о н/о +15.2 +13.3 88 +16 +16 1028.5 979.3
11 21.08 Ю 1 н/о н/о +15.6 +13.1 85 +16 +16 1028.2 979.1
12 21.08 ЮВ 1 н/о {осадки} н/о +16.5 +13.1 80 +17 +17 1027.8 978.8 2
13 21.08 Ю 1 н/о н/о +17.5 +13.5 77 +19 +19 1026.9 978.2
14 21.08 ЮВ 2 н/о н/о +18.5 +13.2 71 +20 +20 1026.6 978.0
15 21.08 Ю 2 н/о н/о +17.8 +12.7 72 +18 +18 1026.5 977.8
16 21.08 Ю 1 н/о н/о +17.7 +12.8 73 +19 +19 1026.6 977.9
17 21.08 Ю 2 н/о н/о +17.6 +12.8 73 +18 +18 1026.2 977.5
18 21.08 Ю 1 н/о н/о +16.2 +12.8 80 +17 +17 1026.5 977.6 +13.5 +19.2 2
19 21.08 штиль 0 н/о н/о +14.7 +12.9 89 +14 +14 1026.9 977.7
20 21.08 Ю 1 н/о н/о +13.6 +12.6 94 +14 +14 1027.2 977.8
21 21.08 штиль 0 н/о н/о +14.5 +13.2 92 +14 +14 1026.7 977.5
22 21.08 штиль 0 н/о н/о +14.8 +13.7 93 +14 +14 1026.7 977.5
23 21.08 штиль 0 н/о н/о +14.8 +13.5 92 +14 +14 1026.5 977.3
00 22.08 ЮВ 1 н/о н/о +14.5 +13.4 93 +15 +15 1025.9 976.7
01 22.08 штиль 0 н/о н/о +14.2 +13.2 94 +14 +14 1024.7 975.5
02 22.08 штиль 0 н/о н/о +14.0 +12.6 91 +14 +14 1024.9 975.7
03 22.08 штиль 0 н/о н/о +13.5 +12.5 94 +13 +13 1024.7 975.4
04 22.08 штиль 0 н/о н/о +13.0 +12.2 95 +12 +12 1024.7 975.3
05 22.08 штиль 0 н/о н/о +12.6 +12.1 97 +12 +12 1024.9 975.4
06 22.08 Ю 1 н/о н/о +13.9 +12.8 93 +14 +14 1025.0 975.7 +12.6 +16.5
07 22.08 СВ 1 н/о н/о +16.7 +12.7 77 +18 +18 1024.2 975.4
08 22.08 ЮЗ 1 н/о н/о +16.6 +13.1 80 +17 +17 1024.4 975.6
09 22.08 ЮВ 1 н/о н/о +17.8 +12.9 73 +19 +19 1024.2 975.6
10 22.08 З 1 н/о н/о +19.1 +13.5 70 +21 +21 комфорт 1024.0 975.7
11 22.08 С 1 н/о н/о +19.4 +13.4 68 +22 +22 комфорт 1024.0 975.7
12 22.08 С 1 н/о н/о +19.6 +13.9 70 +22 +22 комфорт 1023.8 975.6
13 22.08 С 1 н/о н/о +19.8 +13.6 67 +23 +23 комфорт 1023.8 975.6
14 22.08 С 1 н/о н/о +20.0 +14.3 70 +23 +23 комфорт 1023.7 975.5
15 22.08 С 1 н/о н/о +19.9 +14.3 70 +23 +23 комфорт 1023.7 975.5
16 22.08 С 1 н/о н/о +19.5 +14.4 72 +22 +22 комфорт 1023.7 975.5
17 22.08 СЗ 1 н/о н/о +19.0 +13.8 72 +21 +21 комфорт 1023.7 975.4
18 22.08 СЗ 1 н/о н/о +18.7 +13.6 72 +21 +21 комфорт 1024.2 975.8 +13.6 +20.2
19 22.08 штиль 0 н/о н/о +18.1 +14.6 80 +18 +18 1025.1 976.6
20 22.08 штиль 0 н/о н/о +16.4 +14.2 87 +16 +16 1025.8 976.9
21 22.08 ЮВ 1 н/о н/о +15.1 +13.9 93 +16 +16 1025.9 976.8
22 22.08 штиль 0 н/о н/о +14.6 +13.7 94 +14 +14 1025.9 976.7
23 22.08 штиль 0 н/о н/о +15.4 +14.4 94 +15 +15 1025.8 976.8
00 23.08 штиль 0 н/о н/о +15.8 +14.3 91 +16 +16 1025.3 976.4
01 23.08 штиль 0 н/о н/о +15.7 +14.4 92 +15 +15 1025.3 976.4
02 23.08 штиль 0 н/о н/о +16.1 +14.5 90 +16 +16 1025.3 976.4
03 23.08 штиль 0 н/о н/о +16.1 +14.7 91 +16 +16 1025.1 976.2
04 23.08 штиль 0 н/о н/о +16.1 +14.5 90 +16 +16 1025.1 976.2
05 23.08 штиль 0 н/о н/о +15.8 +14.3 91 +16 +16 1025.3 976.4
06 23.08 штиль 0 н/о н/о +16.2 +14.2 88 +16 +16 1025.4 976.5 +14.5 +18.8
07 23.08 Ю 1 н/о н/о +16.8 +14.3 85 +18 +18 1025.3 976.5
08 23.08 ЮВ 1 н/о н/о +17.7 +14.9 84 +19 +19 1025.0 976.4
09 23.08 штиль 0 н/о н/о +18.8 +14.8 78 +20 +20 1024.6 976.2
10 23.08 ЮЗ 1 н/о н/о +19.5 +15.0 75 +22 +22 комфорт 1024.1 975.8
11 23.08 Ю 1 н/о н/о +20.2 +15.2 73 +24 +24 комфорт 1023.7 975.6
12 23.08 З 1 н/о н/о +22.0 +16.6 71 +26 +26 душно 1023.0 975.2
13 23.08 С 1 н/о н/о +22.0 +16.8 72 +26 +26 душно 1022.4 974.7
14 23.08 С 1 н/о н/о +22.2 +16.9 72 +27 +27 душно 1022.0 974.3
15 23.08 СВ 1 н/о н/о +22.3 +16.2 68 +26 +26 жарко 1021.5 973.8
16 23.08 С 1 н/о н/о +22.2 +16.0 68 +26 +26 душно 1021.2 973.5
17 23.08 З 1 н/о н/о +21.5 +17.0 76 +25 +25 комфорт 1021.2 973.4
18 23.08 штиль 0 н/о н/о +20.9 +17.3 80 +24 +24 комфорт 1021.5 973.6 +16.1 +22.6
19 23.08 штиль 0 н/о н/о +20.2 +17.2 83 +23 +23 комфорт 1022.0 974.0
20 23.08 С 1 н/о н/о +19.7 +17.1 85 +23 +23 комфорт 1022.1 974.0
21 23.08 ЮВ 1 н/о н/о +18.6 +17.2 92 +21 +21 комфорт 1021.6 973.4
22 23.08 штиль 0 н/о н/о +18.1 +16.4 90 +18 +18 1021.5 973.2
23 23.08 штиль 0 н/о н/о +16.9 +16.0 94 +17 +17 1021.4 972.9
00 24.08 штиль 0 н/о н/о +16.1 +15.4 96 +16 +16 1020.9 972.3
01 24.08 штиль 0 н/о н/о +15.9 +15.3 96 +16 +16 1021.0 972.3
02 24.08 штиль 0 н/о н/о +15.5 +15.1 97 +15 +15 1020.8 972.1
04 24.08 штиль 0 н/о н/о +15.2 +14.7 97 +15 +15 1020.8 972.0
05 24.08 ЮЗ 1 н/о н/о +15.2 +14.7 97 +16 +16 1020.8 972.0
06 24.08 штиль 0 н/о н/о +16.4 +15.7 96 +16 +16 1020.6 972.0 +14.8 +21.1
07 24.08 Ю 1 н/о н/о +19.1 +16.2 83 +22 +22 комфорт 1019.7 971.6
08 24.08 Ю 1 н/о н/о +21.5 +16.3 72 +25 +25 комфорт 1019.2 971.5
09 24.08 штиль 0 н/о н/о +23.3 +16.9 67 +28 +28 душно 1018.7 971.3
10 24.08 штиль 0 н/о н/о +24.9 +17.0 62 +29 +29 душно 1018.2 971.1
11 24.08 СЗ 1 н/о н/о +25.8 +18.8 65 +31 +31 очень
душно
1017.6 970.7
12 24.08 СЗ 1 н/о н/о +26.7 +18.5 61 +32 +32 очень
душно
1017.1 970.4
13 24.08 СЗ 1 н/о н/о +27.7 +18.5 57 +33 +33 очень
душно
1016.6 970.0
14 24.08 С 1 н/о н/о +28.7 +18.3 53 +33 +33 очень
душно
1016.0 969.6
15 24.08 Ю 1 н/о н/о +20.7 +18.8 89 +26 +26 душно 1017.7 970.0 7
16 24.08 штиль 0 н/о н/о +22.0 +20.5 91 +28 +28 душно 1017.3 969.9
17 24.08 штиль 0 н/о н/о +21.0 +19.9 93 +26 +26 душно 1018.0 970.4
18 24.08 З 1 н/о {ливн. осадки} н/о +20.2 +19.4 95 +25 +25 комфорт 1018.1 970.3 +16.3 +29.1 7
19 24.08 СВ 1 н/о н/о +19.5 +18.2 92 +23 +23 комфорт 1018.7 970.8
20 24.08 штиль 0 н/о н/о +18.8 +18.1 96 +20 +20 1018.9 970.8
21 24.08 штиль 0 н/о н/о +18.5 +17.6 94 +19 +19 1018.5 970.4
22 24.08 штиль 0 н/о н/о +17.5 +17.0 97 +17 +17 1018.8 970.5
23 24.08 штиль 0 н/о н/о +17.4 +16.9 97 +17 +17 1018.6 970.3
00 25.08 СВ 1 н/о н/о +16.7 +16.3 97 +18 +18 1018.5 970.1
01 25.08 штиль 0 н/о н/о +16.5 +15.8 96 +16 +16 1018.8 970.3
02 25.08 штиль 0 н/о н/о +16.4 +15.9 97 +16 +16 1018.5 970.0
03 25.08 штиль 0 н/о н/о +16.1 +15.7 97 +16 +16 1018.5 970.0
04 25.08 штиль 0 н/о н/о +15.5 +15.0 97 +15 +15 1019.0 970.3
05 25.08 штиль 0 н/о н/о +15.5 +14.9 96 +15 +15 1019.4 970.7
06 25.08 штиль 0 н/о н/о +16.9 +15.3 90 +17 +17 1018.8 970.4 +15.5 +20.5
07 25.08 ЮВ 1 н/о н/о +19.8 +16.4 81 +23 +23 комфорт 1018.6 970.7
08 25.08 ЮВ 1 н/о н/о +21.7 +16.5 72 +26 +26 душно 1018.5 970.9
09 25.08 ЮВ 1 н/о н/о +22.2 +15.9 67 +26 +26 душно 1018.7 971.1
10 25.08 ЮЗ 1 н/о н/о +23.7 +15.3 59 +27 +27 жарко 1018.1 970.8
11 25.08 ЮВ 1 н/о н/о +22.8 +17.9 74 +28 +28 душно 1017.9 970.5
12 25.08 ЮВ 1 н/о н/о +21.5 +18.0 80 +26 +26 душно 1018.3 970.7 0.0
13 25.08 Ю 1 н/о осадки н/о +20.8 +18.7 88 +26 +26 душно 1018.5 970.8 2
14 25.08 штиль 0 н/о в посл. час осадки н/о +21.8 +18.8 83 +27 +27 душно 1017.9 970.4 0.2
15 25.08 ЮВ 1 н/о {осадки} н/о +22.6 +18.6 78 +28 +28 душно 1017.4 970.0 2
16 25.08 Ю 2 н/о н/о +22.1 +18.3 79 +27 +27 душно 1017.5 970.0
17 25.08 Ю 1 н/о н/о +22.1 +19.2 84 +28 +28 душно 1017.8 970.3

 

Местоположение метеостанции Зальцбург университет (Австрия): широта 47.78 долгота 13.05 высота над уровнем моря 423 м.

В архиве по умолчанию представлена погода в Зальцбурге университет за последнюю неделю. Архивные данные за месяц целиком и за предыдущие месяцы, начиная с января 2011 года, Вы можете получить, выбрав интересующий диапазон дат из раскрывающегося списка и нажав кнопку "Ввод!".


*Определитесь, кто Вы:
робот инопланетянин человек

Внимание! Время в таблицах - всемирное. Для получения местного времени необходимо прибавить поправку, которая равна 1 ч.

Смотрите также архив погоды в соседних городах и на ближайших метеорологических станциях:

Погода в Зальцбурге (Австрия) (4 км)
Погода в Маттзе (Австрия) (23 км)
Погода в Мондзе (Австрия) (25 км)
Погода в Санкт-Вольфганге (Австрия) (30 км)
Погода в Лофере (Австрия) (34 км)
Погода в Лоферер Альме (Австрия) (36 км)
Погода в Франкенмаркте (Австрия) (36 км)
Погода в Киминге (Германия) (40 км)
Погода в Мария-Альм (Австрия) (43 км)
Погода в Бишофсхофене (Австрия) (44 км)

Пояснения к столбцам:

Ветер - указаны скорость ветра в м/с - средняя за 10 мин, порывы в срок и между сроками (в фигурных скобках) и направление, откуда дует ветер: С - северный, СВ - северо-восточный, В - восточный, ЮВ - юго-восточный, Ю - южный, ЮЗ - юго-западный, З - западный, СЗ - северо-западный.
Видимость - горизонтальная дальность видимости в метрах или километрах. При видимости от 1 до 10 км при отсутствии осадков обычно наблюдается дымка, при ухудшении видимости до 1 км и менее - туман. В сухую погоду видимость может ухудшаться дымом, пылью или мглою.
Явления - указаны атмосферные явления, наблюдавшиеся в срок или в последний час перед сроком; фигурными скобками обозначены явления, наблюдавшиеся между сроками (за 1-3 часа до срока); квадратными скобками обозначены град или гололедные отложения с указанием их диаметра в мм.
Облачность - указаны через наклонную черту общая и нижняя облачность в баллах и высота нижней границы облаков в метрах; квадратными скобками обозначены формы облаков: Ci - перистые, Cs - перисто-слоистые, Cc - перисто-кучевые, Ac - высококучевые, As - высокослоистые, Sc - слоисто-кучевые, Ns - слоисто-дождевые, Cu - кучевые, Cb - кучево-дождевые. Подробнее классификацию облаков см. в Атласе облаков (PDF).
T - Температура воздуха - температура, измеренная на высоте 2 м над землей.
Td - Температура точки росы - температура, при понижении до которой содержащийся в воздухе водяной пар достигнет насыщения.
f - Относительная влажность воздуха - влажноcть воздуха, измеренная на высоте 2 м над землей.
Te - Эффективная температура - температура, которую ощущает одетый по сезону человек в тени. Характеристика душности погоды. При расчете учитывается влияние влажности воздуха и скорости ветра на теплоощущения человека.
Tes - Эффективная температура на солнце - температура, которую ощущает человек, с поправкой на солнечный нагрев. Характеристика знойности погоды. Зависит от высоты солнца над горизонтом, облачности и скорости ветра. Ночью, в пасмурную погоду, а также при ветре 12 м/с и более поправка равна нулю.
P - Атмосферное давление - приведенное к уровню моря атмосферное давление.
Po - Атмосферное давление - измеренное на уровне метеостанции атмосферное давление.
Tmin - Минимальная температура - минимум температуры воздуха на высоте 2 м над землей.
Tmax - Максимальная температура - максимум температуры воздуха на высоте 2 м над землей.
R - Количество осадков - Количество выпавших осадков за период времени, мм. При наведении курсора мыши на число - период времени, за который выпало указанное количество осадков.
R24 - Количество осадков - Количество выпавших осадков за 24 часа, мм.
S - Снежный покров - Высота снежного покрова, см. При наведении курсора мыши на число - состояние снежного покрова и степень покрытия местности в баллах.